Year,Month,Day,Hour,Minute,Value (Times are PST for windspeed in km/hr)
2009,03,15,00,00,11.40
2009,03,15,00,01,13.60
2009,03,15,00,02,11.90
2009,03,15,00,03,12.70
2009,03,15,00,04,9.20
2009,03,15,00,05,10.40
2009,03,15,00,06,11.90
2009,03,15,00,07,11.30
2009,03,15,00,08,9.70
2009,03,15,00,09,7.70
2009,03,15,00,10,12.50
2009,03,15,00,11,12.20
2009,03,15,00,12,11.50
2009,03,15,00,13,14.60
2009,03,15,00,14,13.30
2009,03,15,00,15,13.60
2009,03,15,00,16,10.70
2009,03,15,00,17,15.70
2009,03,15,00,18,9.70
2009,03,15,00,19,12.50
2009,03,15,00,20,16.60
2009,03,15,00,21,16.60
2009,03,15,00,22,17.30
2009,03,15,00,23,13.60
2009,03,15,00,24,12.70
2009,03,15,00,25,18.30
2009,03,15,00,26,14.60
2009,03,15,00,27,16.70
2009,03,15,00,28,16.20
2009,03,15,00,29,13.60
2009,03,15,00,30,16.30
2009,03,15,00,31,18.90
2009,03,15,00,32,12.80
2009,03,15,00,33,13.60
2009,03,15,00,34,16.30
2009,03,15,00,35,16.10
2009,03,15,00,36,14.90
2009,03,15,00,37,17.10
2009,03,15,00,38,14.90
2009,03,15,00,39,15.60
2009,03,15,00,40,12.50
2009,03,15,00,41,14.70
2009,03,15,00,42,14.70
2009,03,15,00,43,12.40
2009,03,15,00,44,11.00
2009,03,15,00,45,10.60
2009,03,15,00,46,9.50
2009,03,15,00,47,11.10
2009,03,15,00,48,8.70
2009,03,15,00,49,10.90
2009,03,15,00,50,10.00
2009,03,15,00,51,10.60
2009,03,15,00,52,12.00
2009,03,15,00,53,7.90
2009,03,15,00,54,11.90
2009,03,15,00,55,14.50
2009,03,15,00,56,14.50
2009,03,15,00,57,14.50
2009,03,15,00,58,14.50
2009,03,15,00,59,15.30
2009,03,15,01,00,11.90
2009,03,15,01,01,13.30
2009,03,15,01,02,10.40
2009,03,15,01,03,14.90
2009,03,15,01,04,12.20
2009,03,15,01,05,12.30
2009,03,15,01,06,10.50
2009,03,15,01,07,15.90
2009,03,15,01,08,12.60
2009,03,15,01,09,12.90
2009,03,15,01,10,14.20
2009,03,15,01,11,13.60
2009,03,15,01,12,12.10
2009,03,15,01,13,9.40
2009,03,15,01,14,10.20
2009,03,15,01,15,11.20
2009,03,15,01,16,10.10
2009,03,15,01,17,10.10
2009,03,15,01,18,9.50
2009,03,15,01,19,7.50
2009,03,15,01,20,10.50
2009,03,15,01,21,9.30
2009,03,15,01,22,7.90
2009,03,15,01,23,10.00
2009,03,15,01,24,10.00
2009,03,15,01,25,11.80
2009,03,15,01,26,13.00
2009,03,15,01,27,11.40
2009,03,15,01,28,12.50
2009,03,15,01,29,9.80
2009,03,15,01,30,9.50
2009,03,15,01,31,7.10
2009,03,15,01,32,10.50
2009,03,15,01,33,9.60
2009,03,15,01,34,8.60
2009,03,15,01,35,7.70
2009,03,15,01,36,10.90
2009,03,15,01,37,6.80
2009,03,15,01,38,6.10
2009,03,15,01,39,6.40
2009,03,15,01,40,6.70
2009,03,15,01,41,6.20
2009,03,15,01,42,7.90
2009,03,15,01,43,6.40
2009,03,15,01,44,8.50
2009,03,15,01,45,10.60
2009,03,15,01,46,6.00
2009,03,15,01,47,7.70
2009,03,15,01,48,12.50
2009,03,15,01,49,9.50
2009,03,15,01,50,7.40
2009,03,15,01,51,4.70
2009,03,15,01,52,9.80
2009,03,15,01,53,8.20
2009,03,15,01,54,5.80
2009,03,15,01,55,4.30
2009,03,15,01,56,7.10
2009,03,15,01,57,3.70
2009,03,15,01,58,5.30
2009,03,15,01,59,3.00
2009,03,15,02,00,2.10
2009,03,15,02,01,3.80
2009,03,15,02,02,5.90
2009,03,15,02,03,3.50
2009,03,15,02,04,3.20
2009,03,15,02,05,3.20
2009,03,15,02,06,3.20
2009,03,15,02,07,1.10
2009,03,15,02,08,2.60
2009,03,15,02,09,2.90
2009,03,15,02,10,3.90
2009,03,15,02,11,3.80
2009,03,15,02,12,7.70
2009,03,15,02,13,4.70
2009,03,15,02,14,3.00
2009,03,15,02,15,1.30
2009,03,15,02,16,2.30
2009,03,15,02,17,2.00
2009,03,15,02,18,0.60
2009,03,15,02,19,3.00
2009,03,15,02,20,4.10
2009,03,15,02,21,3.90
2009,03,15,02,22,10.60
2009,03,15,02,23,4.40
2009,03,15,02,24,6.40
2009,03,15,02,25,4.10
2009,03,15,02,26,2.90
2009,03,15,02,27,4.70
2009,03,15,02,28,4.80
2009,03,15,02,29,3.30
2009,03,15,02,30,4.30
2009,03,15,02,31,2.90
2009,03,15,02,32,0.90
2009,03,15,02,33,0.40
2009,03,15,02,34,2.60
2009,03,15,02,35,4.50
2009,03,15,02,36,4.10
2009,03,15,02,37,1.30
2009,03,15,02,38,3.80
2009,03,15,02,39,2.60
2009,03,15,02,40,3.60
2009,03,15,02,41,3.50
2009,03,15,02,42,3.30
2009,03,15,02,43,6.00
2009,03,15,02,44,5.40
2009,03,15,02,45,3.90
2009,03,15,02,46,3.10
2009,03,15,02,47,2.30
2009,03,15,02,48,1.30
2009,03,15,02,49,1.90
2009,03,15,02,50,0.80
2009,03,15,02,51,0.50
2009,03,15,02,52,1.00
2009,03,15,02,53,1.90
2009,03,15,02,54,2.10
2009,03,15,02,55,1.30
2009,03,15,02,56,1.20
2009,03,15,02,57,1.90
2009,03,15,02,58,0.70
2009,03,15,02,59,2.30
2009,03,15,03,00,1.80
2009,03,15,03,01,0.00
2009,03,15,03,02,0.80
2009,03,15,03,03,2.80
2009,03,15,03,04,0.10
2009,03,15,03,05,0.00
2009,03,15,03,06,0.20
2009,03,15,03,07,0.00
2009,03,15,03,08,0.00
2009,03,15,03,09,0.10
2009,03,15,03,10,0.00
2009,03,15,03,11,0.80
2009,03,15,03,12,0.00
2009,03,15,03,13,0.10
2009,03,15,03,14,0.90
2009,03,15,03,15,0.40
2009,03,15,03,16,3.30
2009,03,15,03,17,0.90
2009,03,15,03,18,0.80
2009,03,15,03,19,0.60
2009,03,15,03,20,0.30
2009,03,15,03,21,0.00
2009,03,15,03,22,0.40
2009,03,15,03,23,0.00
2009,03,15,03,24,0.70
2009,03,15,03,25,0.30
2009,03,15,03,26,0.00
2009,03,15,03,27,0.00
2009,03,15,03,28,0.00
2009,03,15,03,29,0.00
2009,03,15,03,30,0.00
2009,03,15,03,31,0.00
2009,03,15,03,32,0.00
2009,03,15,03,33,0.00
2009,03,15,03,34,0.30
2009,03,15,03,35,0.50
2009,03,15,03,36,0.20
2009,03,15,03,37,0.30
2009,03,15,03,38,0.10
2009,03,15,03,39,0.00
2009,03,15,03,40,0.10
2009,03,15,03,41,0.00
2009,03,15,03,42,0.00
2009,03,15,03,43,0.00
2009,03,15,03,44,0.40
2009,03,15,03,45,0.20
2009,03,15,03,46,0.00
2009,03,15,03,47,0.90
2009,03,15,03,48,4.00
2009,03,15,03,49,2.40
2009,03,15,03,50,0.10
2009,03,15,03,51,0.00
2009,03,15,03,52,0.00
2009,03,15,03,53,0.00
2009,03,15,03,54,0.00
2009,03,15,03,55,0.60
2009,03,15,03,56,0.70
2009,03,15,03,57,0.60
2009,03,15,03,58,0.00
2009,03,15,03,59,0.00
2009,03,15,04,00,0.00
2009,03,15,04,01,0.10
2009,03,15,04,02,0.30
2009,03,15,04,03,0.00
2009,03,15,04,04,0.30
2009,03,15,04,05,1.10
2009,03,15,04,06,2.50
2009,03,15,04,07,0.20
2009,03,15,04,08,0.00
2009,03,15,04,09,0.20
2009,03,15,04,10,2.70
2009,03,15,04,11,0.60
2009,03,15,04,12,0.20
2009,03,15,04,13,1.00
2009,03,15,04,14,1.90
2009,03,15,04,15,0.00
2009,03,15,04,16,0.00
2009,03,15,04,17,0.00
2009,03,15,04,18,0.00
2009,03,15,04,19,0.00
2009,03,15,04,20,0.00
2009,03,15,04,21,0.00
2009,03,15,04,22,0.00
2009,03,15,04,23,0.10
2009,03,15,04,24,3.50
2009,03,15,04,25,0.30
2009,03,15,04,26,0.40
2009,03,15,04,27,1.20
2009,03,15,04,28,0.20
2009,03,15,04,29,1.30
2009,03,15,04,30,1.50
2009,03,15,04,31,0.90
2009,03,15,04,32,0.10
2009,03,15,04,33,0.10
2009,03,15,04,34,1.30
2009,03,15,04,35,4.70
2009,03,15,04,36,0.80
2009,03,15,04,37,3.10
2009,03,15,04,38,4.40
2009,03,15,04,39,2.40
2009,03,15,04,40,0.90
2009,03,15,04,41,0.00
2009,03,15,04,42,0.50
2009,03,15,04,43,0.00
2009,03,15,04,44,0.60
2009,03,15,04,45,1.90
2009,03,15,04,46,3.80
2009,03,15,04,47,1.40
2009,03,15,04,48,1.20
2009,03,15,04,49,0.40
2009,03,15,04,50,1.30
2009,03,15,04,51,0.00
2009,03,15,04,52,0.00
2009,03,15,04,53,0.00
2009,03,15,04,54,0.00
2009,03,15,04,55,0.20
2009,03,15,04,56,0.00
2009,03,15,04,57,0.00
2009,03,15,04,58,0.00
2009,03,15,04,59,0.00
2009,03,15,05,00,0.00
2009,03,15,05,01,0.00
2009,03,15,05,02,0.00
2009,03,15,05,03,0.00
2009,03,15,05,04,0.00
2009,03,15,05,05,0.00
2009,03,15,05,06,0.00
2009,03,15,05,07,0.00
2009,03,15,05,08,0.00
2009,03,15,05,09,0.00
2009,03,15,05,10,0.00
2009,03,15,05,11,0.70
2009,03,15,05,12,0.50
2009,03,15,05,13,0.00
2009,03,15,05,14,0.00
2009,03,15,05,15,0.00
2009,03,15,05,16,0.00
2009,03,15,05,17,0.00
2009,03,15,05,18,0.00
2009,03,15,05,19,0.00
2009,03,15,05,20,0.00
2009,03,15,05,21,0.00
2009,03,15,05,22,0.00
2009,03,15,05,23,0.00
2009,03,15,05,24,0.00
2009,03,15,05,25,0.40
2009,03,15,05,26,0.40
2009,03,15,05,27,0.00
2009,03,15,05,28,1.50
2009,03,15,05,29,0.20
2009,03,15,05,30,0.20
2009,03,15,05,31,0.00
2009,03,15,05,32,0.00
2009,03,15,05,33,0.50
2009,03,15,05,34,3.20
2009,03,15,05,35,2.30
2009,03,15,05,36,0.00
2009,03,15,05,37,0.30
2009,03,15,05,38,0.00
2009,03,15,05,39,1.00
2009,03,15,05,40,0.10
2009,03,15,05,41,0.00
2009,03,15,05,42,0.60
2009,03,15,05,43,0.00
2009,03,15,05,44,0.00
2009,03,15,05,45,0.00
2009,03,15,05,46,0.00
2009,03,15,05,47,0.00
2009,03,15,05,48,0.00
2009,03,15,05,49,0.00
2009,03,15,05,50,0.00
2009,03,15,05,51,0.00
2009,03,15,05,52,0.00
2009,03,15,05,53,0.00
2009,03,15,05,54,0.00
2009,03,15,05,55,0.00
2009,03,15,05,56,0.00
2009,03,15,05,57,0.20
2009,03,15,05,58,0.10
2009,03,15,05,59,0.50
2009,03,15,06,00,0.30
2009,03,15,06,01,0.10
2009,03,15,06,02,0.00
2009,03,15,06,03,0.00
2009,03,15,06,04,0.00
2009,03,15,06,05,0.00
2009,03,15,06,06,0.00
2009,03,15,06,07,0.00
2009,03,15,06,08,0.00
2009,03,15,06,09,0.00
2009,03,15,06,10,0.00
2009,03,15,06,11,0.00
2009,03,15,06,12,0.00
2009,03,15,06,13,0.00
2009,03,15,06,14,0.00
2009,03,15,06,15,0.00
2009,03,15,06,16,0.00
2009,03,15,06,17,0.00
2009,03,15,06,18,0.00
2009,03,15,06,19,0.00
2009,03,15,06,20,0.00
2009,03,15,06,21,0.00
2009,03,15,06,22,0.00
2009,03,15,06,23,0.00
2009,03,15,06,24,0.00
2009,03,15,06,25,0.00
2009,03,15,06,26,0.00
2009,03,15,06,27,0.30
2009,03,15,06,28,0.00
2009,03,15,06,29,0.00
2009,03,15,06,30,0.00
2009,03,15,06,31,0.00
2009,03,15,06,32,0.00
2009,03,15,06,33,0.00
2009,03,15,06,34,0.00
2009,03,15,06,35,0.00
2009,03,15,06,36,0.30
2009,03,15,06,37,0.00
2009,03,15,06,38,0.00
2009,03,15,06,39,0.00
2009,03,15,06,40,0.00
2009,03,15,06,41,0.00
2009,03,15,06,42,0.00
2009,03,15,06,43,0.00
2009,03,15,06,44,0.00
2009,03,15,06,45,0.00
2009,03,15,06,46,0.00
2009,03,15,06,47,0.00
2009,03,15,06,48,0.00
2009,03,15,06,49,0.00
2009,03,15,06,50,0.00
2009,03,15,06,51,0.00
2009,03,15,06,52,0.00
2009,03,15,06,53,0.00
2009,03,15,06,54,0.00
2009,03,15,06,55,0.00
2009,03,15,06,56,0.00
2009,03,15,06,57,0.00
2009,03,15,06,58,0.00
2009,03,15,06,59,0.00
2009,03,15,07,00,0.00
2009,03,15,07,01,0.10
2009,03,15,07,02,0.00
2009,03,15,07,03,0.00
2009,03,15,07,04,0.00
2009,03,15,07,05,0.00
2009,03,15,07,06,0.00
2009,03,15,07,07,0.00
2009,03,15,07,08,0.00
2009,03,15,07,09,0.00
2009,03,15,07,10,0.00
2009,03,15,07,11,0.00
2009,03,15,07,12,0.30
2009,03,15,07,13,2.10
2009,03,15,07,14,0.10
2009,03,15,07,15,1.70
2009,03,15,07,16,4.30
2009,03,15,07,17,3.70
2009,03,15,07,18,6.60
2009,03,15,07,19,1.00
2009,03,15,07,20,2.20
2009,03,15,07,21,3.50
2009,03,15,07,22,0.60
2009,03,15,07,23,0.30
2009,03,15,07,24,0.60
2009,03,15,07,25,0.40
2009,03,15,07,26,0.30
2009,03,15,07,27,3.10
2009,03,15,07,28,2.30
2009,03,15,07,29,1.60
2009,03,15,07,30,3.20
2009,03,15,07,31,0.80
2009,03,15,07,32,0.60
2009,03,15,07,33,2.80
2009,03,15,07,34,3.20
2009,03,15,07,35,3.20
2009,03,15,07,36,3.20
2009,03,15,07,37,3.20
2009,03,15,07,38,1.40
2009,03,15,07,39,0.00
2009,03,15,07,40,0.00
2009,03,15,07,41,0.00
2009,03,15,07,42,0.20
2009,03,15,07,43,1.40
2009,03,15,07,44,2.60
2009,03,15,07,45,5.50
2009,03,15,07,46,0.80
2009,03,15,07,47,1.80
2009,03,15,07,48,1.50
2009,03,15,07,49,1.50
2009,03,15,07,50,2.40
2009,03,15,07,51,1.30
2009,03,15,07,52,2.80
2009,03,15,07,53,3.10
2009,03,15,07,54,2.20
2009,03,15,07,55,2.50
2009,03,15,07,56,4.50
2009,03,15,07,57,2.40
2009,03,15,07,58,2.00
2009,03,15,07,59,2.90
2009,03,15,08,00,6.80
2009,03,15,08,01,5.90
2009,03,15,08,02,4.80
2009,03,15,08,03,3.80
2009,03,15,08,04,1.20
2009,03,15,08,05,1.90
2009,03,15,08,06,5.60
2009,03,15,08,07,4.00
2009,03,15,08,08,1.70
2009,03,15,08,09,2.70
2009,03,15,08,10,0.60
2009,03,15,08,11,2.20
2009,03,15,08,12,2.10
2009,03,15,08,13,1.90
2009,03,15,08,14,2.10
2009,03,15,08,15,2.10
2009,03,15,08,16,0.70
2009,03,15,08,17,3.60
2009,03,15,08,18,2.70
2009,03,15,08,19,4.30
2009,03,15,08,20,5.90
2009,03,15,08,21,12.90
2009,03,15,08,22,4.80
2009,03,15,08,23,10.80
2009,03,15,08,24,10.30
2009,03,15,08,25,3.30
2009,03,15,08,26,2.90
2009,03,15,08,27,10.30
2009,03,15,08,28,6.20
2009,03,15,08,29,2.60
2009,03,15,08,30,6.30
2009,03,15,08,31,7.00
2009,03,15,08,32,10.20
2009,03,15,08,33,9.60
2009,03,15,08,34,6.20
2009,03,15,08,35,5.00
2009,03,15,08,36,7.50
2009,03,15,08,37,9.20
2009,03,15,08,38,3.90
2009,03,15,08,39,4.70
2009,03,15,08,40,3.10
2009,03,15,08,41,5.70
2009,03,15,08,42,3.50
2009,03,15,08,43,1.60
2009,03,15,08,44,1.60
2009,03,15,08,45,1.60
2009,03,15,08,46,7.40
2009,03,15,08,47,6.40
2009,03,15,08,48,7.80
2009,03,15,08,49,5.30
2009,03,15,08,50,4.80
2009,03,15,08,51,3.80
2009,03,15,08,52,5.00
2009,03,15,08,53,5.60
2009,03,15,08,54,6.30
2009,03,15,08,55,2.40
2009,03,15,08,56,3.20
2009,03,15,08,57,3.20
2009,03,15,08,58,3.20
2009,03,15,08,59,3.60
2009,03,15,09,00,2.80
2009,03,15,09,01,10.60
2009,03,15,09,02,8.40
2009,03,15,09,03,12.20
2009,03,15,09,04,7.40
2009,03,15,09,05,4.20
2009,03,15,09,06,7.70
2009,03,15,09,07,3.60
2009,03,15,09,08,9.70
2009,03,15,09,09,4.20
2009,03,15,09,10,9.00
2009,03,15,09,11,4.40
2009,03,15,09,12,2.00
2009,03,15,09,13,5.70
2009,03,15,09,14,11.90
2009,03,15,09,15,7.30
2009,03,15,09,16,14.10
2009,03,15,09,17,12.40
2009,03,15,09,18,13.90
2009,03,15,09,19,15.30
2009,03,15,09,20,18.70
2009,03,15,09,21,8.20
2009,03,15,09,22,6.10
2009,03,15,09,23,5.50
2009,03,15,09,24,4.60
2009,03,15,09,25,10.60
2009,03,15,09,26,2.90
2009,03,15,09,27,6.40
2009,03,15,09,28,4.30
2009,03,15,09,29,3.70
2009,03,15,09,30,4.60
2009,03,15,09,31,6.30
2009,03,15,09,32,3.60
2009,03,15,09,33,3.10
2009,03,15,09,34,2.90
2009,03,15,09,35,3.60
2009,03,15,09,36,6.10
2009,03,15,09,37,8.30
2009,03,15,09,38,3.60
2009,03,15,09,39,3.70
2009,03,15,09,40,1.10
2009,03,15,09,41,3.20
2009,03,15,09,42,4.80
2009,03,15,09,43,7.80
2009,03,15,09,44,3.20
2009,03,15,09,45,3.30
2009,03,15,09,46,2.80
2009,03,15,09,47,5.50
2009,03,15,09,48,5.10
2009,03,15,09,49,3.30
2009,03,15,09,50,2.70
2009,03,15,09,51,3.00
2009,03,15,09,52,0.10
2009,03,15,09,53,2.90
2009,03,15,09,54,4.20
2009,03,15,09,55,4.20
2009,03,15,09,56,1.90
2009,03,15,09,57,1.00
2009,03,15,09,58,5.70
2009,03,15,09,59,8.00
2009,03,15,10,00,2.20
2009,03,15,10,01,4.70
2009,03,15,10,02,1.30
2009,03,15,10,03,5.20
2009,03,15,10,04,5.70
2009,03,15,10,05,4.60
2009,03,15,10,06,1.50
2009,03,15,10,07,2.50
2009,03,15,10,08,5.80
2009,03,15,10,09,3.30
2009,03,15,10,10,3.10
2009,03,15,10,11,4.30
2009,03,15,10,12,3.80
2009,03,15,10,13,0.90
2009,03,15,10,14,1.00
2009,03,15,10,15,4.10
2009,03,15,10,16,1.90
2009,03,15,10,17,6.90
2009,03,15,10,18,1.80
2009,03,15,10,19,4.30
2009,03,15,10,20,3.40
2009,03,15,10,21,1.10
2009,03,15,10,22,1.40
2009,03,15,10,23,0.60
2009,03,15,10,24,4.00
2009,03,15,10,25,3.20
2009,03,15,10,26,4.30
2009,03,15,10,27,2.70
2009,03,15,10,28,0.20
2009,03,15,10,29,0.40
2009,03,15,10,30,2.50
2009,03,15,10,31,0.30
2009,03,15,10,32,1.20
2009,03,15,10,33,5.20
2009,03,15,10,34,1.40
2009,03,15,10,35,1.50
2009,03,15,10,36,0.50
2009,03,15,10,37,2.00
2009,03,15,10,38,0.80
2009,03,15,10,39,0.60
2009,03,15,10,40,1.60
2009,03,15,10,41,2.40
2009,03,15,10,42,2.20
2009,03,15,10,43,1.50
2009,03,15,10,44,0.40
2009,03,15,10,45,2.20
2009,03,15,10,46,0.50
2009,03,15,10,47,0.40
2009,03,15,10,48,3.20
2009,03,15,10,49,0.40
2009,03,15,10,50,0.00
2009,03,15,10,51,1.10
2009,03,15,10,52,1.80
2009,03,15,10,53,0.00
2009,03,15,10,54,0.40
2009,03,15,10,55,1.50
2009,03,15,10,56,0.00
2009,03,15,10,57,0.10
2009,03,15,10,58,0.00
2009,03,15,10,59,1.10
2009,03,15,11,00,2.90
2009,03,15,11,01,1.00
2009,03,15,11,02,0.80
2009,03,15,11,03,0.60
2009,03,15,11,04,1.20
2009,03,15,11,05,0.20
2009,03,15,11,06,1.00
2009,03,15,11,07,1.50
2009,03,15,11,08,0.00
2009,03,15,11,09,0.00
2009,03,15,11,10,0.00
2009,03,15,11,11,0.00
2009,03,15,11,12,0.00
2009,03,15,11,13,0.00
2009,03,15,11,14,0.00
2009,03,15,11,15,0.30
2009,03,15,11,16,2.30
2009,03,15,11,17,1.40
2009,03,15,11,18,0.00
2009,03,15,11,19,1.10
2009,03,15,11,20,1.80
2009,03,15,11,21,0.00
2009,03,15,11,22,0.00
2009,03,15,11,23,0.00
2009,03,15,11,24,0.00
2009,03,15,11,25,0.00
2009,03,15,11,26,0.00
2009,03,15,11,27,0.10
2009,03,15,11,28,0.00
2009,03,15,11,29,0.00
2009,03,15,11,30,0.00
2009,03,15,11,31,0.00
2009,03,15,11,32,0.00
2009,03,15,11,33,0.00
2009,03,15,11,34,0.00
2009,03,15,11,35,0.00
2009,03,15,11,36,0.00
2009,03,15,11,37,0.30
2009,03,15,11,38,0.00
2009,03,15,11,39,0.60
2009,03,15,11,40,0.20
2009,03,15,11,41,0.00
2009,03,15,11,42,0.40
2009,03,15,11,43,0.30
2009,03,15,11,44,0.00
2009,03,15,11,45,0.00
2009,03,15,11,46,0.00
2009,03,15,11,47,2.50
2009,03,15,11,48,2.70
2009,03,15,11,49,0.30
2009,03,15,11,50,0.00
2009,03,15,11,51,0.00
2009,03,15,11,52,0.00
2009,03,15,11,53,0.40
2009,03,15,11,54,0.10
2009,03,15,11,55,0.50
2009,03,15,11,56,1.20
2009,03,15,11,57,0.00
2009,03,15,11,58,0.00
2009,03,15,11,59,0.00
2009,03,15,12,00,0.00
2009,03,15,12,01,0.00
2009,03,15,12,02,0.00
2009,03,15,12,03,0.00
2009,03,15,12,04,0.00
2009,03,15,12,05,0.00
2009,03,15,12,06,0.10
2009,03,15,12,07,0.00
2009,03,15,12,08,0.00
2009,03,15,12,09,0.00
2009,03,15,12,10,0.00
2009,03,15,12,11,0.00
2009,03,15,12,12,0.00
2009,03,15,12,13,0.00
2009,03,15,12,14,0.00
2009,03,15,12,15,0.00
2009,03,15,12,16,0.00
2009,03,15,12,17,0.00
2009,03,15,12,18,0.00
2009,03,15,12,19,0.00
2009,03,15,12,20,0.00
2009,03,15,12,21,0.10
2009,03,15,12,22,0.00
2009,03,15,12,23,0.00
2009,03,15,12,24,0.00
2009,03,15,12,25,0.00
2009,03,15,12,26,0.00
2009,03,15,12,27,0.10
2009,03,15,12,28,0.00
2009,03,15,12,29,0.00
2009,03,15,12,30,0.00
2009,03,15,12,31,0.00
2009,03,15,12,32,0.00
2009,03,15,12,33,0.00
2009,03,15,12,34,0.00
2009,03,15,12,35,0.00
2009,03,15,12,36,0.00
2009,03,15,12,37,0.00
2009,03,15,12,38,0.00
2009,03,15,12,39,0.00
2009,03,15,12,40,0.00
2009,03,15,12,41,0.00
2009,03,15,12,42,0.00
2009,03,15,12,43,0.00
2009,03,15,12,44,0.00
2009,03,15,12,45,0.00
2009,03,15,12,46,0.00
2009,03,15,12,47,0.00
2009,03,15,12,48,0.00
2009,03,15,12,49,0.00
2009,03,15,12,50,0.00
2009,03,15,12,51,0.00
2009,03,15,12,52,0.00
2009,03,15,12,53,0.50
2009,03,15,12,54,0.80
2009,03,15,12,55,0.50
2009,03,15,12,56,1.20
2009,03,15,12,57,0.60
2009,03,15,12,58,1.70
2009,03,15,12,59,0.10
2009,03,15,13,00,0.00
2009,03,15,13,01,0.00
2009,03,15,13,02,0.00
2009,03,15,13,03,0.00
2009,03,15,13,04,0.00
2009,03,15,13,05,0.00
2009,03,15,13,06,0.00
2009,03,15,13,07,0.00
2009,03,15,13,08,4.90
2009,03,15,13,09,2.80
2009,03,15,13,10,2.60
2009,03,15,13,11,0.80
2009,03,15,13,12,0.30
2009,03,15,13,13,0.90
2009,03,15,13,14,0.50
2009,03,15,13,15,0.00
2009,03,15,13,16,0.00
2009,03,15,13,17,1.10
2009,03,15,13,18,0.60
2009,03,15,13,19,0.90
2009,03,15,13,20,0.00
2009,03,15,13,21,2.90
2009,03,15,13,22,2.90
2009,03,15,13,23,1.40
2009,03,15,13,24,4.60
2009,03,15,13,25,4.70
2009,03,15,13,26,4.60
2009,03,15,13,27,6.00
2009,03,15,13,28,4.50
2009,03,15,13,29,8.80
2009,03,15,13,30,11.50
2009,03,15,13,31,6.70
2009,03,15,13,32,7.30
2009,03,15,13,33,6.00
2009,03,15,13,34,4.60
2009,03,15,13,35,6.40
2009,03,15,13,36,5.80
2009,03,15,13,37,6.60
2009,03,15,13,38,5.80
2009,03,15,13,39,6.90
2009,03,15,13,40,6.40
2009,03,15,13,41,5.80
2009,03,15,13,42,8.80
2009,03,15,13,43,11.40
2009,03,15,13,44,9.80
2009,03,15,13,45,11.60
2009,03,15,13,46,16.60
2009,03,15,13,47,17.90
2009,03,15,13,48,15.90
2009,03,15,13,49,14.30
2009,03,15,13,50,10.20
2009,03,15,13,51,14.30
2009,03,15,13,52,10.80
2009,03,15,13,53,10.80
2009,03,15,13,54,11.30
2009,03,15,13,55,12.40
2009,03,15,13,56,17.50
2009,03,15,13,57,14.00
2009,03,15,13,58,14.30
2009,03,15,13,59,17.00
2009,03,15,14,00,10.00
2009,03,15,14,01,20.20
2009,03,15,14,02,21.30
2009,03,15,14,03,29.40
2009,03,15,14,04,30.00
2009,03,15,14,05,17.50
2009,03,15,14,06,22.30
2009,03,15,14,07,19.50
2009,03,15,14,08,19.80
2009,03,15,14,09,18.30
2009,03,15,14,10,8.90
2009,03,15,14,11,18.00
2009,03,15,14,12,19.50
2009,03,15,14,13,20.40
2009,03,15,14,14,17.90
2009,03,15,14,15,14.60
2009,03,15,14,16,19.60
2009,03,15,14,17,14.70
2009,03,15,14,18,17.80
2009,03,15,14,19,12.90
2009,03,15,14,20,9.60
2009,03,15,14,21,14.70
2009,03,15,14,22,15.50
2009,03,15,14,23,23.50
2009,03,15,14,24,19.20
2009,03,15,14,25,15.00
2009,03,15,14,26,13.90
2009,03,15,14,27,17.50
2009,03,15,14,28,13.40
2009,03,15,14,29,17.70
2009,03,15,14,30,16.40
2009,03,15,14,31,15.80
2009,03,15,14,32,17.80
2009,03,15,14,33,14.40
2009,03,15,14,34,18.30
2009,03,15,14,35,13.80
2009,03,15,14,36,15.00
2009,03,15,14,37,17.60
2009,03,15,14,38,17.80
2009,03,15,14,39,17.90
2009,03,15,14,40,15.40
2009,03,15,14,41,12.20
2009,03,15,14,42,17.20
2009,03,15,14,43,16.90
2009,03,15,14,44,17.60
2009,03,15,14,45,16.90
2009,03,15,14,46,16.30
2009,03,15,14,47,14.70
2009,03,15,14,48,14.70
2009,03,15,14,49,14.50
2009,03,15,14,50,11.30
2009,03,15,14,51,11.50
2009,03,15,14,52,10.80
2009,03,15,14,53,8.50
2009,03,15,14,54,8.60
2009,03,15,14,55,7.70
2009,03,15,14,56,5.70
2009,03,15,14,57,11.40
2009,03,15,14,58,10.10
2009,03,15,14,59,6.80
2009,03,15,15,00,8.10
2009,03,15,15,01,7.00
2009,03,15,15,02,8.20
2009,03,15,15,03,10.70
2009,03,15,15,04,14.80
2009,03,15,15,05,20.10
2009,03,15,15,06,14.30
2009,03,15,15,07,23.30
2009,03,15,15,08,21.90
2009,03,15,15,09,19.10
2009,03,15,15,10,15.40
2009,03,15,15,11,12.30
2009,03,15,15,12,9.30
2009,03,15,15,13,14.40
2009,03,15,15,14,13.50
2009,03,15,15,15,12.90
2009,03,15,15,16,7.80
2009,03,15,15,17,11.70
2009,03,15,15,18,13.80
2009,03,15,15,19,9.70
2009,03,15,15,20,18.30
2009,03,15,15,21,16.50
2009,03,15,15,22,15.40
2009,03,15,15,23,14.20
2009,03,15,15,24,8.50
2009,03,15,15,25,6.60
2009,03,15,15,26,16.20
2009,03,15,15,27,14.60
2009,03,15,15,28,15.70
2009,03,15,15,29,14.70
2009,03,15,15,30,15.10
2009,03,15,15,31,12.00
2009,03,15,15,32,11.50
2009,03,15,15,33,18.60
2009,03,15,15,34,24.90
2009,03,15,15,35,17.30
2009,03,15,15,36,17.70
2009,03,15,15,37,19.60
2009,03,15,15,38,19.30
2009,03,15,15,39,22.50
2009,03,15,15,40,17.20
2009,03,15,15,41,16.80
2009,03,15,15,42,22.70
2009,03,15,15,43,23.90
2009,03,15,15,44,20.80
2009,03,15,15,45,19.10
2009,03,15,15,46,20.50
2009,03,15,15,47,18.10
2009,03,15,15,48,19.70
2009,03,15,15,49,19.60
2009,03,15,15,50,20.90
2009,03,15,15,51,18.20
2009,03,15,15,52,15.30
2009,03,15,15,53,15.30
2009,03,15,15,54,18.40
2009,03,15,15,55,19.40
2009,03,15,15,56,17.00
2009,03,15,15,57,11.40
2009,03,15,15,58,21.30
2009,03,15,15,59,16.80
2009,03,15,16,00,16.80
2009,03,15,16,01,20.70
2009,03,15,16,02,17.90
2009,03,15,16,03,12.90
2009,03,15,16,04,14.60
2009,03,15,16,05,17.40
2009,03,15,16,06,15.10
2009,03,15,16,07,12.80
2009,03,15,16,08,10.10
2009,03,15,16,09,10.90
2009,03,15,16,10,9.10
2009,03,15,16,11,6.40
2009,03,15,16,12,7.00
2009,03,15,16,13,11.40
2009,03,15,16,14,8.60
2009,03,15,16,15,8.00
2009,03,15,16,16,7.00
2009,03,15,16,17,4.80
2009,03,15,16,18,6.50
2009,03,15,16,19,8.20
2009,03,15,16,20,8.10
2009,03,15,16,21,5.30
2009,03,15,16,22,12.00
2009,03,15,16,23,14.70
2009,03,15,16,24,12.40
2009,03,15,16,25,3.30
2009,03,15,16,26,4.20
2009,03,15,16,27,7.00
2009,03,15,16,28,7.80
2009,03,15,16,29,7.50
2009,03,15,16,30,5.30
2009,03,15,16,31,6.90
2009,03,15,16,32,5.20
2009,03,15,16,33,7.00
2009,03,15,16,34,8.20
2009,03,15,16,35,11.40
2009,03,15,16,36,8.20
2009,03,15,16,37,9.10
2009,03,15,16,38,10.70
2009,03,15,16,39,7.00
2009,03,15,16,40,11.50
2009,03,15,16,41,10.00
2009,03,15,16,42,9.20
2009,03,15,16,43,6.40
2009,03,15,16,44,10.10
2009,03,15,16,45,9.40
2009,03,15,16,46,10.40
2009,03,15,16,47,12.70
2009,03,15,16,48,11.10
2009,03,15,16,49,9.10
2009,03,15,16,50,8.10
2009,03,15,16,51,4.90
2009,03,15,16,52,6.40
2009,03,15,16,53,6.70
2009,03,15,16,54,5.30
2009,03,15,16,55,5.30
2009,03,15,16,56,6.70
2009,03,15,16,57,5.80
2009,03,15,16,58,5.70
2009,03,15,16,59,7.20
2009,03,15,17,00,5.50
2009,03,15,17,01,7.20
2009,03,15,17,02,10.80
2009,03,15,17,03,9.80
2009,03,15,17,04,7.30
2009,03,15,17,05,9.70
2009,03,15,17,06,7.60
2009,03,15,17,07,3.80
2009,03,15,17,08,15.90
2009,03,15,17,09,17.40
2009,03,15,17,10,11.30
2009,03,15,17,11,10.30
2009,03,15,17,12,18.00
2009,03,15,17,13,15.40
2009,03,15,17,14,11.30
2009,03,15,17,15,8.60
2009,03,15,17,16,10.90
2009,03,15,17,17,7.10
2009,03,15,17,18,14.90
2009,03,15,17,19,8.00
2009,03,15,17,20,7.10
2009,03,15,17,21,9.10
2009,03,15,17,22,14.80
2009,03,15,17,23,10.30
2009,03,15,17,24,14.70
2009,03,15,17,25,14.30
2009,03,15,17,26,16.50
2009,03,15,17,27,15.60
2009,03,15,17,28,14.50
2009,03,15,17,29,13.20
2009,03,15,17,30,12.70
2009,03,15,17,31,12.40
2009,03,15,17,32,8.50
2009,03,15,17,33,10.10
2009,03,15,17,34,12.50
2009,03,15,17,35,11.10
2009,03,15,17,36,9.90
2009,03,15,17,37,11.10
2009,03,15,17,38,13.30
2009,03,15,17,39,18.80
2009,03,15,17,40,10.70
2009,03,15,17,41,6.70
2009,03,15,17,42,8.00
2009,03,15,17,43,9.60
2009,03,15,17,44,9.70
2009,03,15,17,45,4.80
2009,03,15,17,46,10.40
2009,03,15,17,47,17.30
2009,03,15,17,48,11.70
2009,03,15,17,49,8.60
2009,03,15,17,50,9.40
2009,03,15,17,51,6.40
2009,03,15,17,52,11.30
2009,03,15,17,53,15.30
2009,03,15,17,54,4.50